Find Starlink 35411

NORAD ID: 66560 Int'l Des: 2025-268 Owner: SPXS Country: US Constellation: starlink operational
LEOCIRCULAR

現在のビュー

3D地球を読み込み中...

Starlink 35411について

説明を読み込み中...

次回通過

Passes for default location (London). Set your location on the main map for personalized predictions.

高度履歴

Loading altitude history...

軌道要素

1 66560U 25268D 26150.64811105 .00010485 00000-0 39003-3 0 9992
2 66560 43.0033 244.2581 0001690 255.5242 104.5423 15.27577199 30493
Epoch: May 30, 2026 • Age: 26 hours

現在のステータス

高度 484.3 km
速度 7.62 km/s
衛星直下点 -10.71°S, 82.18°W
打ち上げ日 Nov 21, 2025
運用期間 0.5 years
タイプ internet

技術仕様

分類 Payload
質量 575.00 kg
乾燥質量 530.00 kg
総質量 575.00 kg
長さ 0.30 m
直径 4.10 m
スパン 29.00 m
形状 Box + pan
製造者 SPXS
バスタイプ Starlink V2MO
フェーズステータス In Orbit
所有者/国 SPXS/US

Most Searched